GW1728 Weather Reports


Display with metric or nautical units.
time (UTC)temp
F
wind
direction
speed
MPH
gust
MPH
rain 1hr
in
rain 24hr
in
rain mn
in
humidity
%
barometer
mb
20260505163634 47 350 9.0 11.0 0.00 0.00 0.00 46 1021.1
20260505163132 46 332 5.0 7.0 0.00 0.00 0.00 45 1021.0
20260505162629 47 27 14.0 15.0 0.00 0.00 0.00 46 1020.8
20260505162127 47 11 6.0 7.0 0.00 0.00 0.00 47 1021.0
20260505161624 46 354 6.0 7.0 0.00 0.00 0.00 47 1021.0
20260505161121 45 351 7.0 9.0 0.00 0.00 0.00 48 1021.0
20260505160618 46 315 3.0 5.0 0.00 0.00 0.00 49 1021.0
20260505160116 46 3 4.0 5.0 0.00 0.00 0.00 48 1021.0
20260505153055 44 4 7.0 8.0 0.00 0.00 0.00 54 1021.4
20260505152551 44 341 5.0 5.0 0.00 0.00 0.00 55 1021.2
20260505152047 44 21 6.0 7.0 0.00 0.00 0.00 55 1021.2
20260505151542 44 17 5.0 6.0 0.00 0.00 0.00 55 1021.3
20260505151040 44 328 2.0 2.0 0.00 0.00 0.00 56 1021.3
20260505150536 44 293 4.0 7.0 0.00 0.00 0.00 57 1021.3
20260505140502 41 349 2.0 2.0 0.00 0.00 0.00 63 1021.2
20260505124915 39 350 1.0 1.0 0.00 0.00 0.00 64 1020.8
20260505124412 39 352 2.0 2.0 0.00 0.00 0.00 63 1020.9
20260505123908 39 5 3.0 3.0 0.00 0.00 0.00 62 1020.6
20260505123405 39 7 3.0 3.0 0.00 0.00 0.00 61 1020.7
20260505122900 39 4 3.0 3.0 0.00 0.00 0.00 61 1020.6
20260505122358 39 18 1.0 2.0 0.00 0.00 0.00 61 1020.8
20260505121854 39 16 2.0 2.0 0.00 0.00 0.00 62 1020.6
20260505121351 39 24 3.0 3.0 0.00 0.00 0.00 62 1020.7
20260505120847 39 21 2.0 2.0 0.00 0.00 0.00 62 1020.6
20260505120344 39 14 2.0 2.0 0.00 0.00 0.00 62 1020.4
20260505115842 39 9 3.0 5.0 0.00 0.00 0.00 61 1020.4
20260505115340 39 349 2.0 2.0 0.00 0.00 0.00 61 1020.4
20260505114838 39 11 3.0 5.0 0.00 0.00 0.00 60 1020.2
20260505114334 39 9 3.0 3.0 0.00 0.00 0.00 59 1020.4
20260505113830 40 6 5.0 6.0 0.00 0.00 0.00 59 1020.3
20260505113327 40 10 3.0 3.0 0.00 0.00 0.00 58 1020.3
20260505112823 40 12 4.0 5.0 0.00 0.00 0.00 57 1020.2
20260505112320 40 18 2.0 2.0 0.00 0.00 0.00 57 1020.3
20260505111815 41 18 2.0 2.0 0.00 0.00 0.00 56 1020.3
20260505111311 41 23 4.0 5.0 0.00 0.00 0.00 56 1020.2
20260505110807 41 3 3.0 3.0 0.00 0.00 0.00 57 1020.3
20260505110306 41 20 2.0 3.0 0.00 0.00 0.00 57 1020.2
20260505101739 40 148 0.0 0.0 0.00 0.00 0.00 62 1020.0
20260505101235 40 148 1.0 1.0 0.00 0.00 0.00 62 1019.9
20260505100732 40 148 0.0 0.0 0.00 0.00 0.00 61 1020.0
20260505100229 40 148 0.0 0.0 0.00 0.00 0.00 61 1019.9
20260505095724 40 148 0.0 0.0 0.00 0.00 0.00 60 1019.9
20260505095222 40 148 0.0 0.0 0.00 0.00 0.00 59 1019.8
20260505094718 40 148 0.0 0.0 0.00 0.00 0.00 58 1019.8
20260505094214 40 148 0.0 0.0 0.00 0.00 0.00 58 1019.7
20260505093711 40 148 0.0 0.0 0.00 0.00 0.00 57 1019.6
20260505093208 40 148 0.0 0.0 0.00 0.00 0.00 57 1019.5
20260505092705 40 148 0.0 0.0 0.00 0.00 0.00 57 1019.7
20260505092204 40 148 0.0 0.0 0.00 0.00 0.00 57 1019.5
20260505091700 40 148 0.0 0.0 0.00 0.00 0.00 56 1019.6
20260505091158 40 148 0.0 0.0 0.00 0.00 0.00 55 1019.5
20260505090655 40 148 0.0 0.0 0.00 0.00 0.00 54 1019.6
20260505090154 40 148 0.0 0.0 0.00 0.00 0.00 54 1019.5
20260505085651 40 148 0.0 0.0 0.00 0.00 0.00 53 1019.5
20260505085149 41 148 0.0 0.0 0.00 0.00 0.00 53 1019.5
20260505084646 41 148 0.0 0.0 0.00 0.00 0.00 52 1019.6
20260505084145 41 148 0.0 0.0 0.00 0.00 0.00 52 1019.7
20260505083642 41 148 0.0 0.0 0.00 0.00 0.00 52 1019.7
20260505083138 41 148 0.0 0.0 0.00 0.00 0.00 53 1019.8
20260505082634 41 148 0.0 0.0 0.00 0.00 0.00 53 1019.6
20260505082131 41 148 0.0 0.0 0.00 0.00 0.00 54 1019.7
20260505081627 41 50 1.0 1.0 0.00 0.00 0.00 53 1019.4
20260505081125 41 50 0.0 0.0 0.00 0.00 0.00 54 1019.6
20260505080621 41 49 0.0 0.0 0.00 0.00 0.00 56 1019.8
20260505080118 41 49 1.0 1.0 0.00 0.00 0.00 56 1019.7
20260505075614 40 50 0.0 0.0 0.00 0.00 0.00 54 1019.7
20260505075111 41 49 0.0 0.0 0.00 0.00 0.00 52 1019.7
20260505074607 40 49 0.0 0.0 0.00 0.00 0.00 52 1019.7
20260505074105 40 49 0.0 0.0 0.00 0.00 0.00 53 1019.9
20260505073602 41 49 0.0 0.0 0.00 0.00 0.00 53 1019.6
20260505073100 41 49 0.0 0.0 0.00 0.00 0.00 52 1019.6
20260505072555 41 49 1.0 1.0 0.00 0.00 0.00 52 1019.6
20260505072052 41 49 0.0 0.0 0.00 0.00 0.00 52 1019.7
20260505071548 41 49 0.0 0.0 0.00 0.00 0.00 52 1019.7
20260505071046 41 50 0.0 0.0 0.00 0.00 0.00 51 1019.6
20260505070543 41 50 0.0 0.0 0.00 0.00 0.00 51 1019.5
20260505070039 41 50 1.0 1.0 0.00 0.00 0.00 51 1019.7
20260505065535 42 48 3.0 3.0 0.00 0.00 0.00 50 1019.7
20260505065032 42 47 3.0 3.0 0.00 0.00 0.00 49 1019.8
20260505064529 42 73 3.0 3.0 0.00 0.00 0.00 49 1019.7
20260505064027 42 65 2.0 2.0 0.00 0.00 0.00 49 1019.5
20260505063524 41 78 1.0 1.0 0.00 0.00 0.00 50 1019.5
20260505063020 41 78 0.0 0.0 0.00 0.00 0.00 52 1019.5
20260505062517 41 78 0.0 0.0 0.00 0.00 0.00 51 1019.4
20260505062014 41 78 2.0 2.0 0.00 0.00 0.00 50 1019.4
20260505061512 42 59 2.0 2.0 0.00 0.00 0.00 50 1019.1
20260505061009 41 59 1.0 1.0 0.00 0.00 0.00 51 1019.1
20260505060507 41 58 0.0 0.0 0.00 0.00 0.00 51 1018.9
20260505060003 42 58 0.0 0.0 0.00 0.00 0.00 50 1019.0
20260505055458 42 58 1.0 1.0 0.00 0.00 0.00 50 1019.1
20260505054955 42 58 1.0 1.0 0.00 0.00 0.00 50 1019.2
20260505054453 42 57 1.0 2.0 0.00 0.00 0.00 50 1019.1
20260505053950 42 58 0.0 0.0 0.00 0.00 0.00 51 1019.0
20260505053447 42 58 1.0 2.0 0.00 0.00 0.00 51 1019.0
20260505052944 42 52 4.0 5.0 0.00 0.00 0.00 50 1018.9
20260505052441 42 37 4.0 5.0 0.00 0.00 0.00 49 1018.8
20260505051938 42 53 4.0 5.0 0.00 0.00 0.00 49 1018.7
20260505051435 42 51 4.0 5.0 0.00 0.00 0.00 48 1018.8
20260505050933 42 41 5.0 6.0 0.00 0.00 0.00 48 1018.8
20260505050431 42 47 5.0 7.0 0.00 0.00 0.00 48 1019.0
20260505041359 44 54 5.0 6.0 0.00 0.00 0.00 46 1018.6
20260505040856 44 55 5.0 5.0 0.00 0.00 0.00 46 1018.7
20260505040354 44 42 7.0 7.0 0.00 0.00 0.00 46 1018.5
20260505035850 44 48 5.0 6.0 0.00 0.00 0.00 46 1018.6
20260505035346 44 39 6.0 7.0 0.00 0.00 0.00 46 1018.5
20260505034843 43 52 7.0 8.0 0.00 0.00 0.00 46 1018.5
20260505034340 44 26 5.0 7.0 0.00 0.00 0.00 46 1018.4
20260505033837 44 45 6.0 7.0 0.00 0.00 0.00 45 1018.4
20260505033334 44 55 6.0 8.0 0.00 0.00 0.00 44 1018.4
20260505032832 44 35 7.0 9.0 0.00 0.00 0.00 44 1018.2
20260505032328 44 19 9.0 11.0 0.00 0.00 0.00 44 1018.3
20260505031825 45 69 5.0 7.0 0.00 0.00 0.00 43 1017.9
20260505031322 45 27 6.0 8.0 0.00 0.00 0.00 42 1017.6
20260505030819 46 49 3.0 3.0 0.00 0.00 0.00 41 1017.9
20260505030315 46 26 8.0 10.0 0.00 0.00 0.00 40 1017.7
20260505025811 46 20 9.0 10.0 0.00 0.00 0.00 39 1017.7
20260505025309 47 37 7.0 8.0 0.00 0.00 0.00 38 1017.5
20260505024807 48 26 6.0 7.0 0.00 0.00 0.00 36 1017.5
20260505024304 49 38 11.0 13.0 0.00 0.00 0.00 35 1017.4
20260505023801 49 23 7.0 8.0 0.00 0.00 0.00 32 1017.4
20260505023258 49 16 4.0 5.0 0.00 0.00 0.00 32 1017.4
20260505022755 50 25 5.0 7.0 0.00 0.00 0.00 31 1017.3
20260505022252 50 22 7.0 10.0 0.00 0.00 0.00 30 1017.1
20260505021749 51 19 7.0 9.0 0.00 0.00 0.00 28 1017.2
20260505021246 51 20 8.0 8.0 0.00 0.00 0.00 29 1016.8
20260505020742 51 15 13.0 17.0 0.00 0.00 0.00 27 1016.7
20260505020237 52 23 6.0 7.0 0.00 0.00 0.00 27 1016.8
20260505015735 52 12 7.0 10.0 0.00 0.00 0.00 25 1016.7
20260505015231 53 9 7.0 9.0 0.00 0.00 0.00 26 1016.7
20260505014728 53 18 9.0 10.0 0.00 0.00 0.00 25 1016.6
20260505014226 54 355 9.0 11.0 0.00 0.00 0.00 24 1016.6
20260505013722 54 354 8.0 10.0 0.00 0.00 0.00 23 1016.3
20260505013219 54 9 5.0 6.0 0.00 0.00 0.00 24 1016.4
20260505012718 55 354 6.0 8.0 0.00 0.00 0.00 24 1016.5
20260505012215 55 352 4.0 6.0 0.00 0.00 0.00 24 1016.5
20260505011710 55 357 5.0 7.0 0.00 0.00 0.00 24 1016.3
20260505011208 55 355 7.0 11.0 0.00 0.00 0.00 24 1016.7
20260505010703 55 15 12.0 15.0 0.00 0.00 0.00 24 1016.7
20260505010200 55 348 5.0 7.0 0.00 0.00 0.00 24 1016.5
20260505005656 56 12 8.0 10.0 0.00 0.00 0.00 23 1016.6
20260505005153 55 2 5.0 7.0 0.00 0.00 0.00 24 1016.6
20260505004650 56 327 3.0 3.0 0.00 0.00 0.00 25 1016.7
20260505004147 56 352 4.0 5.0 0.00 0.00 0.00 24 1016.6
20260505003644 55 13 9.0 13.0 0.00 0.00 0.00 24 1016.8
20260505003142 56 319 3.0 5.0 0.00 0.00 0.00 24 1016.6
20260505002637 56 16 12.0 15.0 0.00 0.00 0.00 24 1016.6
20260505002136 57 352 4.0 6.0 0.00 0.00 0.00 24 1016.7
20260505001633 57 20 7.0 10.0 0.00 0.00 0.00 24 1016.5
20260505001130 57 14 9.0 11.0 0.00 0.00 0.00 25 1016.6
20260505000627 56 1 12.0 14.0 0.00 0.00 0.00 24 1016.6
20260505000125 56 22 5.0 7.0 0.00 0.00 0.00 25 1016.7
20260504235621 56 9 7.0 8.0 0.00 0.00 0.00 24 1016.7
20260504235118 57 351 3.0 3.0 0.00 0.00 0.00 25 1016.7
20260504234615 56 12 8.0 10.0 0.00 0.00 0.00 25 1016.8
20260504234112 58 356 8.0 9.0 0.00 0.00 0.00 25 1016.7
20260504233608 58 9 11.0 14.0 0.00 0.00 0.00 24 1016.7
20260504233104 58 347 4.0 5.0 0.00 0.00 0.00 26 1016.6
20260504232602 57 4 6.0 9.0 0.00 0.00 0.00 26 1016.7
20260504232059 57 355 9.0 13.0 0.00 0.00 0.00 26 1016.6
20260504231555 57 10 20.0 25.0 0.00 0.00 0.00 27 1016.6
20260504231051 55 13 11.0 14.0 0.00 0.00 0.00 29 1016.7
20260504230547 56 10 11.0 14.0 0.00 0.00 0.00 30 1016.8
20260504230047 55 13 9.0 13.0 0.00 0.00 0.00 31 1016.8
20260504225543 55 5 6.0 9.0 0.00 0.00 0.00 32 1016.6
20260504225041 54 359 6.0 8.0 0.00 0.00 0.00 32 1016.8
20260504224537 54 0 7.0 10.0 0.00 0.00 0.00 34 1016.9
20260504224034 54 20 12.0 15.0 0.00 0.00 0.00 32 1016.8
20260504223531 54 337 7.0 9.0 0.00 0.00 0.00 33 1016.8
20260504223027 55 333 7.0 8.0 0.00 0.00 0.00 32 1017.1
20260504222524 55 5 7.0 8.0 0.00 0.00 0.00 33 1016.9
20260504222021 55 8 7.0 9.0 0.00 0.00 0.00 33 1016.8
20260504221518 55 349 5.0 8.0 0.00 0.00 0.00 33 1016.8
20260504221015 55 317 6.0 8.0 0.00 0.00 0.00 33 1016.9
20260504220512 55 6 7.0 8.0 0.00 0.00 0.00 33 1016.8
20260504220009 55 8 11.0 14.0 0.00 0.00 0.00 33 1017.1
20260504215505 55 2 8.0 11.0 0.00 0.00 0.00 33 1016.9
20260504215003 55 353 7.0 8.0 0.00 0.00 0.00 32 1016.8
20260504214458 55 12 5.0 7.0 0.00 0.00 0.00 32 1016.7
20260504213955 56 24 19.0 25.0 0.00 0.00 0.00 30 1016.7
20260504213451 57 17 8.0 11.0 0.00 0.00 0.00 31 1016.8
20260504212949 56 357 9.0 10.0 0.00 0.00 0.00 31 1016.9
20260504212444 57 8 9.0 11.0 0.00 0.00 0.00 31 1016.8
20260504211942 57 15 12.0 14.0 0.00 0.00 0.00 30 1016.8
20260504211438 57 353 14.0 16.0 0.00 0.00 0.00 29 1016.8
20260504210936 57 12 15.0 21.0 0.00 0.00 0.00 29 1016.7
20260504210433 57 7 12.0 15.0 0.00 0.00 0.00 30 1016.8
20260504205930 57 319 8.0 11.0 0.00 0.00 0.00 29 1016.8
20260504205427 56 15 9.0 10.0 0.00 0.00 0.00 30 1016.7
20260504204925 57 1 9.0 16.0 0.00 0.00 0.00 30 1016.6
20260504204423 57 5 7.0 10.0 0.00 0.00 0.00 32 1016.7
20260504203922 56 7 9.0 11.0 0.00 0.00 0.00 31 1016.8
20260504203420 58 332 8.0 11.0 0.00 0.00 0.00 30 1016.7
20260504202915 57 353 4.0 6.0 0.00 0.00 0.00 32 1016.6
20260504202412 59 2 7.0 8.0 0.00 0.00 0.00 30 1016.8
20260504201909 57 359 12.0 16.0 0.00 0.00 0.00 30 1016.5
20260504201406 56 24 9.0 10.0 0.00 0.00 0.00 31 1016.6
20260504200903 57 357 19.0 24.0 0.00 0.00 0.00 30 1016.4
20260504200400 57 22 6.0 9.0 0.00 0.00 0.00 31 1016.5
20260504195857 58 328 6.0 8.0 0.00 0.00 0.00 31 1016.6
20260504195352 57 327 6.0 9.0 0.00 0.00 0.00 31 1016.5
20260504194849 59 330 8.0 13.0 0.00 0.00 0.00 30 1016.6
20260504194345 57 10 5.0 7.0 0.00 0.00 0.00 32 1016.5
20260504193841 57 357 13.0 15.0 0.00 0.00 0.00 31 1016.7
20260504193339 58 332 7.0 9.0 0.00 0.00 0.00 31 1016.6
20260504192838 58 2 14.0 17.0 0.00 0.00 0.00 30 1016.7
20260504192335 59 6 7.0 8.0 0.00 0.00 0.00 30 1016.7
20260504191833 59 0 7.0 10.0 0.00 0.00 0.00 31 1016.6
20260504191330 58 348 9.0 10.0 0.00 0.00 0.00 30 1016.7
20260504190826 58 342 13.0 18.0 0.00 0.00 0.00 30 1016.6
20260504190322 59 1 4.0 6.0 0.00 0.00 0.00 33 1016.7
20260504185819 59 355 5.0 5.0 0.00 0.00 0.00 30 1016.8
20260504185316 58 347 6.0 8.0 0.00 0.00 0.00 30 1016.7
20260504184812 59 336 8.0 9.0 0.00 0.00 0.00 31 1016.7
20260504184308 58 340 7.0 10.0 0.00 0.00 0.00 33 1016.8
20260504183803 58 330 7.0 8.0 0.00 0.00 0.00 32 1016.8
20260504183301 59 356 9.0 11.0 0.00 0.00 0.00 32 1016.8
20260504182759 59 330 8.0 10.0 0.00 0.00 0.00 33 1016.7
20260504182255 58 356 5.0 6.0 0.00 0.00 0.00 34 1017.1
20260504181753 59 331 9.0 10.0 0.00 0.00 0.00 32 1016.8
20260504181250 58 357 9.0 13.0 0.00 0.00 0.00 32 1016.8
20260504180749 58 342 9.0 13.0 0.00 0.00 0.00 32 1017.1
20260504180248 59 6 8.0 11.0 0.00 0.00 0.00 33 1016.8
20260504175745 57 17 11.0 14.0 0.00 0.00 0.00 33 1016.9
20260504175242 56 12 6.0 8.0 0.00 0.00 0.00 35 1017.1
20260504174739 56 353 10.0 16.0 0.00 0.00 0.00 34 1017.1
20260504174237 56 6 12.0 17.0 0.00 0.00 0.00 36 1017.2
20260504173733 56 333 7.0 10.0 0.00 0.00 0.00 36 1016.9
20260504173231 57 344 6.0 7.0 0.00 0.00 0.00 36 1016.9
20260504172727 57 10 12.0 14.0 0.00 0.00 0.00 34 1016.9
20260504172224 56 335 6.0 7.0 0.00 0.00 0.00 35 1016.9
20260504171720 55 22 5.0 8.0 0.00 0.00 0.00 38 1017.1
20260504171217 55 343 5.0 7.0 0.00 0.00 0.00 41 1017.1
20260504170714 55 357 5.0 7.0 0.00 0.00 0.00 40 1017.1
20260504170212 55 0 5.0 6.0 0.00 0.00 0.00 41 1016.9